This is the latest recevied weather packets stored in our database for station/object 9D9-WX. If no packets are shown the sender has not sent any weather packets the latest 10 day(s).
| Time | Temp. | Humidity | Pressure | Rain* | Wind** | Luminosity | Snow |
|---|---|---|---|---|---|---|---|
| 1777298432 | 13.89° C | 68% | 986.5 hPa | 0 mm | - | - | - |
| 1777297509 | 13.33° C | 75% | 987.1 hPa | 0 mm | - | - | - |
| 1777296625 | 12.78° C | 75% | 987.1 hPa | 0 mm | - | - | - |
| 1777295709 | 12.22° C | 75% | 987.1 hPa | 0 mm | - | - | - |
| 1777294830 | 11.67° C | 75% | 987.1 hPa | 0 mm | - | - | - |
| 1777293908 | 11.11° C | 81% | 987.4 hPa | 0 mm | - | - | - |
| 1777293026 | 10.56° C | 81% | 987.4 hPa | 0 mm | - | - | - |
| 1777292108 | 10° C | 81% | 987.4 hPa | 0 mm | - | - | - |
| 1777291232 | 9.44° C | 81% | 987.4 hPa | 0 mm | - | - | - |
| 1777290314 | 8.89° C | 85% | 987.5 hPa | 0 mm | - | - | - |
| 1777289422 | 8.33° C | 86% | 987.3 hPa | 0 mm | - | - | - |
| 1777288511 | 7.22° C | 86% | 987.3 hPa | 0 mm | - | - | - |
| 1777287632 | 7.22° C | 86% | 987.3 hPa | 0 mm | - | - | - |
| 1777286714 | 7.22° C | 82% | 988.8 hPa | 0 mm | - | - | - |
| 1777285825 | 6.67° C | 85% | 988.5 hPa | 0 mm | - | - | - |
| 1777284914 | 6.67° C | 85% | 988.5 hPa | 0 mm | - | - | - |
| 1777284034 | 6.67° C | 85% | 988.5 hPa | 0 mm | - | - | - |
| 1777283111 | 6.67° C | 79% | 988.3 hPa | 0 mm | - | - | - |
| 1777282226 | 6.67° C | 82% | 988.6 hPa | 0 mm | - | - | - |
| 1777281314 | 6.67° C | 82% | 988.6 hPa | 0 mm | - | - | - |
| 1777280427 | 7.22° C | 82% | 988.6 hPa | 0 mm | - | - | - |
| 1777279514 | 7.22° C | 77% | 987.8 hPa | 0 mm | - | - | - |
| 1777278626 | 7.22° C | 73% | 987.6 hPa | 0 mm | - | - | - |
| 1777277714 | 7.22° C | 73% | 987.6 hPa | 0 mm | - | - | - |
| 1777276831 | 7.22° C | 76% | 987.3 hPa | 0 mm | - | - | - |
* Rain latest hour (hover to see other rain measurements)
** Current wind speed in m/s (hover to see current wind gust speed)